[[{"header":{"parameterUnit":"m.s-1","parameterCategory":1,"la1":30.2991,"la2":30.254,"lo1":-89.0895,"lo2":-89.0444,"dy":0.0017,"dx":0.0017,"nx":28,"ny":28,"refTime":"2024-08-06T03:00:00:Z","depth":0,"parameterNumber":2,"parameterNumberName":"U-component_of_WINDS"},"data":[0,0,0,0,0,0,0,0,0,0,0,0,0,0,0,0,0,0,0,0,0,0,0,0,0,0,0,0,0,0,0,0,0,0,0,0,0,0,0,0,0,0,0,0,0,0,0,0,0,0,0,0,0,0,0,0,0,0,2.8458,2.8459,0,2.8557,2.8558,2.8559,2.853,2.8528,2.8526,2.8524,2.8627,2.8632,2.8636,0,0,0,0,0,0,0,0,0,0,0,0,0,2.8247,2.8251,2.8458,2.8459,2.846,2.8556,2.8558,2.8559,2.8531,2.8528,2.8526,2.8523,2.8626,2.8631,2.8637,0,0,0,0,0,0,0,0,0,0,0,0,0,2.8342,2.8253,2.8457,2.8457,2.8458,2.8556,2.8558,2.856,2.8531,2.8528,2.8525,2.8522,2.8624,2.8631,2.8638,2.8742,0,0,2.8659,2.8662,0,0,0,0,0,0,0,0,2.8337,2.835,2.8456,2.8458,2.8459,2.8528,2.8521,2.8621,2.8532,2.8504,2.8524,2.8521,2.8597,2.8606,2.8631,2.8747,2.8751,2.866,2.8664,2.8667,2.8669,0,0,0,0,0,0,0,2.833,2.8345,2.8497,2.8458,2.846,2.8454,2.8464,2.854,2.8566,2.8506,2.8504,2.8516,2.8597,2.8625,2.8633,2.8753,2.8659,2.8666,2.867,2.8673,2.8962,2.8965,0,0,0,0,0,0,2.8322,2.834,2.8494,2.85,2.8389,2.846,2.8471,2.8509,2.8565,2.8571,2.8519,2.8514,2.8614,2.8625,2.8637,2.8765,2.8667,2.8673,2.8677,2.8958,2.8963,2.8966,0,0,0,0,0,0,2.8318,2.8336,2.849,2.8419,2.8439,2.8467,2.851,2.8513,2.854,2.8575,2.858,2.8542,2.8612,2.8627,2.8717,2.8768,2.8676,2.8683,2.8954,2.896,2.8965,2.902,0,0,0,0,0,0,2.8312,2.8335,2.8374,2.8421,2.8442,2.8567,2.8513,2.8517,2.8552,2.8547,2.8598,2.8603,2.8611,2.8706,2.8724,2.8776,2.8688,2.895,2.8957,2.8963,2.9014,2.9026,2.9037,0,0,0,0,0,2.8304,2.8385,2.8376,2.8394,2.8492,2.857,2.8582,2.8589,2.8556,2.8596,2.8619,2.8602,2.8759,2.8716,2.8735,2.879,2.8947,2.8955,2.8962,2.9008,2.9024,2.9037,0,0,0,0,0,0,2.8343,2.8391,2.8381,2.8479,2.8521,2.8565,2.8615,2.8605,2.8657,2.865,2.8657,2.8669,2.8761,2.8784,2.8735,2.8895,2.8848,2.886,2.8877,2.8892,2.8903,2.8896,2.8694,0,0,0,0,0,2.8363,2.8422,2.8461,2.8544,2.8565,2.8587,2.8621,2.8623,2.8666,2.8684,2.8713,2.8756,2.8816,2.8855,2.8911,2.9017,2.9029,2.9064,2.9076,2.9086,2.9096,2.9157,2.9174,2.8992,2.8992,2.8992,0,0,2.8405,2.8438,2.8475,2.8552,2.8585,2.8647,2.8602,2.8668,2.8715,2.8694,2.8781,2.8804,2.8853,2.8952,2.8996,2.8974,2.9149,2.9096,2.9103,2.9109,2.9166,2.9184,2.9199,2.8998,2.8997,2.8996,0,0,2.8513,2.8543,2.8617,2.8651,2.87,2.8715,2.8733,2.8779,2.8794,2.8881,2.8867,2.8923,2.9025,2.9061,2.9093,2.9218,2.9205,2.9236,2.9299,2.9357,2.9371,2.9384,2.9431,2.9447,2.9247,2.9247,2.9247,0,2.8559,2.8651,2.8656,2.8725,2.8761,2.8745,2.882,2.8853,2.8919,2.8944,2.8918,2.9047,2.9079,2.9187,2.9218,2.9243,2.9266,2.9231,2.9369,2.9382,2.9394,2.9438,2.9455,2.925,2.925,2.925,2.9249,0,2.8706,2.877,2.8824,2.8889,2.893,2.9002,2.9019,2.9061,2.906,2.9078,2.9168,2.9206,2.9271,2.9297,2.9296,2.9406,2.939,2.9366,2.932,2.9414,2.9457,2.9473,2.9256,2.9254,2.9253,2.9252,0,0,2.884,2.8908,2.8928,2.8958,2.9013,2.9064,2.9136,2.92,2.9236,2.9283,2.9345,2.9433,2.9412,2.9448,2.9451,2.9503,2.9602,2.9473,2.9474,2.9497,2.9728,2.9747,2.9767,2.9593,2.9597,2.9599,2.9725,0,2.8954,2.9081,2.9089,2.9204,2.9265,2.9252,2.9316,2.9357,2.9376,2.9432,2.9453,2.9516,2.9482,2.9504,2.9554,2.9579,2.9649,2.957,2.9653,2.9656,2.9642,2.9788,2.9808,2.9924,2.9741,2.9744,2.9746,0,2.9104,2.9156,2.9277,2.9326,2.9352,2.9409,2.9469,2.9522,2.957,2.958,2.9622,2.9619,2.9695,2.9645,2.9751,2.9698,2.9732,2.975,2.9755,2.9764,2.9707,2.9803,2.9961,2.9979,2.9771,2.9769,2.9768,0,2.9192,2.9292,2.9379,2.9405,2.9463,2.9504,2.953,2.9575,2.9614,2.9667,2.9693,2.9754,2.9788,2.9836,2.9851,2.9813,2.9958,2.9908,2.997,2.997,3.0002,3.0,3.017,3.0022,3.0021,3.0021,3.0021,0,2.9319,2.9394,2.9419,2.9473,2.9557,2.9567,2.9651,2.9675,2.9715,2.9774,2.9767,2.9822,2.9837,2.9896,2.9908,2.9996,3.0011,3.0023,3.0025,3.0024,3.0023,3.0047,3.004,3.0026,3.0025,3.0024,3.0023,0,2.9432,2.9451,2.9545,2.9593,2.9607,2.9668,2.971,2.9762,2.9781,2.9856,2.9874,2.9904,2.9973,2.9992,3.0075,3.0083,3.0187,3.0181,3.0171,3.0171,3.0233,3.0227,3.0425,3.0453,3.0286,3.0287,3.0289,0,2.9512,2.957,2.9625,2.9664,2.9693,2.9755,2.9795,2.9807,2.9849,2.991,2.9955,3.0024,3.0079,3.0191,3.0221,3.0285,3.0281,3.0347,3.0291,3.0289,3.0285,3.0282,3.0289,3.0357,3.0359,3.036,3.0362,0,2.9653,2.9661,2.9718,2.978,2.9828,2.9878,2.9925,2.9958,2.9977,3.0025,3.0096,3.0139,3.0225,3.0294,3.0359,3.0387,3.0379,3.0379,3.0397,3.0397,3.039,3.0396,3.0201,3.0374,3.0373,3.0372,3.0371,3.0371,2.9753,2.9805,2.9853,2.9918,2.9955,3.0,3.0053,3.0079,3.0138,3.0208,3.0212,3.029,3.0339,3.0426,3.0458,3.052,3.0501,3.0527,3.0534,3.054,3.0546,3.0379,3.0532,3.0532,3.0531,3.0531,3.0531,0,2.9895,2.9926,2.9986,3.0053,3.0105,3.0092,3.0145,3.019,3.0258,3.0304,3.036,3.0443,3.051,3.0546,3.0614,3.0657,3.0655,3.0674,3.0672,3.0679,3.0558,3.0537,3.0675,3.0675,3.0675,3.0675,3.0675,3.0675,2.9976,3.0064,3.0077,3.0184,3.0215,3.0291,3.0322,3.0365,3.0402,3.0495,3.0551,3.0574,3.0617,3.0688,3.075,3.0759,3.0785,3.0807,3.0814,3.0702,3.0687,3.0673,3.0653,3.0813,3.0813,3.093,3.0931,3.0932]},{"header":{"parameterUnit":"m.s-1","parameterCategory":1,"la1":30.2991,"la2":30.254,"lo1":-89.0895,"lo2":-89.0444,"dy":0.0017,"dx":0.0017,"nx":28,"ny":28,"refTime":"2024-08-06T03:00:00:Z","depth":0,"parameterNumber":3,"parameterNumberName":"V-component_of_WINDS"},"data":[0,0,0,0,0,0,0,0,0,0,0,0,0,0,0,0,0,0,0,0,0,0,0,0,0,0,0,0,0,0,0,0,0,0,0,0,0,0,0,0,0,0,0,0,0,0,0,0,0,0,0,0,0,0,0,0,0,0,-1.9393,-1.9393,0,-1.9421,-1.9421,-1.9422,-1.9406,-1.9405,-1.9404,-1.9403,-1.9433,-1.9435,-1.9436,0,0,0,0,0,0,0,0,0,0,0,0,0,-1.9327,-1.9328,-1.9393,-1.9393,-1.9394,-1.9421,-1.9421,-1.9422,-1.9406,-1.9405,-1.9404,-1.9403,-1.9433,-1.9435,-1.9437,0,0,0,0,0,0,0,0,0,0,0,0,0,-1.9356,-1.9329,-1.9393,-1.9389,-1.9389,-1.9421,-1.9421,-1.9422,-1.9406,-1.9405,-1.9404,-1.9402,-1.9432,-1.9435,-1.9437,-1.9475,0,0,-1.9444,-1.9445,0,0,0,0,0,0,0,0,-1.9354,-1.9358,-1.9389,-1.9389,-1.9389,-1.9409,-1.9409,-1.944,-1.9406,-1.94,-1.9403,-1.9402,-1.9426,-1.9429,-1.9437,-1.9476,-1.9477,-1.9444,-1.9445,-1.9446,-1.9447,0,0,0,0,0,0,0,-1.9352,-1.9357,-1.9404,-1.939,-1.939,-1.9386,-1.9389,-1.9415,-1.9419,-1.94,-1.9399,-1.9402,-1.9426,-1.9435,-1.9437,-1.9478,-1.9444,-1.9446,-1.9447,-1.9448,-1.955,-1.9551,0,0,0,0,0,0,-1.935,-1.9355,-1.9403,-1.9405,-1.9368,-1.9388,-1.9391,-1.9404,-1.9419,-1.942,-1.9403,-1.9401,-1.9431,-1.9435,-1.9438,-1.9484,-1.9446,-1.9449,-1.945,-1.9549,-1.955,-1.9552,0,0,0,0,0,0,-1.9349,-1.9355,-1.9402,-1.938,-1.9386,-1.9391,-1.9405,-1.9405,-1.9413,-1.9421,-1.9422,-1.9411,-1.943,-1.9435,-1.9466,-1.9485,-1.945,-1.9452,-1.9547,-1.9549,-1.9551,-1.9576,0,0,0,0,0,0,-1.9347,-1.9354,-1.9368,-1.938,-1.9387,-1.9429,-1.9406,-1.9406,-1.9417,-1.9415,-1.9429,-1.943,-1.943,-1.9462,-1.9468,-1.9487,-1.9454,-1.9546,-1.9548,-1.955,-1.9573,-1.9578,-1.9583,0,0,0,0,0,-1.9345,-1.9374,-1.9369,-1.9375,-1.9405,-1.943,-1.9434,-1.9432,-1.9419,-1.9433,-1.9438,-1.943,-1.9482,-1.9466,-1.9472,-1.9492,-1.9544,-1.9547,-1.955,-1.9571,-1.9577,-1.9583,0,0,0,0,0,0,-1.9365,-1.9376,-1.937,-1.9405,-1.9416,-1.9427,-1.9445,-1.9439,-1.9455,-1.9452,-1.945,-1.9454,-1.9486,-1.9492,-1.9474,-1.953,-1.9511,-1.9515,-1.9525,-1.9531,-1.9535,-1.9533,-1.9455,0,0,0,0,0,-1.9374,-1.9393,-1.9401,-1.9431,-1.9437,-1.944,-1.9451,-1.9449,-1.9461,-1.9466,-1.9474,-1.9486,-1.9506,-1.9518,-1.9536,-1.9574,-1.9577,-1.9591,-1.9596,-1.9599,-1.9603,-1.9624,-1.9631,-1.9562,-1.9561,-1.9561,0,0,-1.9392,-1.94,-1.9412,-1.9435,-1.9444,-1.9465,-1.9445,-1.9467,-1.9482,-1.947,-1.9499,-1.9505,-1.9519,-1.9553,-1.9569,-1.956,-1.9623,-1.9603,-1.9606,-1.9608,-1.9628,-1.9634,-1.964,-1.9564,-1.9563,-1.9563,0,0,-1.9435,-1.9443,-1.9469,-1.9478,-1.9491,-1.9493,-1.9499,-1.9511,-1.9514,-1.9543,-1.9534,-1.9553,-1.9586,-1.9596,-1.9606,-1.9653,-1.9646,-1.9659,-1.9683,-1.9704,-1.9709,-1.9714,-1.9731,-1.9737,-1.9662,-1.9662,-1.9662,0,-1.9456,-1.9486,-1.9483,-1.9506,-1.9516,-1.9505,-1.9532,-1.9541,-1.956,-1.9568,-1.9557,-1.9598,-1.9607,-1.9643,-1.9655,-1.9663,-1.967,-1.9657,-1.9708,-1.9713,-1.9718,-1.9734,-1.9741,-1.9664,-1.9664,-1.9664,-1.9663,0,-1.9511,-1.9532,-1.9551,-1.9569,-1.9582,-1.9606,-1.9607,-1.9621,-1.9617,-1.962,-1.965,-1.966,-1.968,-1.9689,-1.9686,-1.9725,-1.9719,-1.9708,-1.9689,-1.9726,-1.9741,-1.9748,-1.9666,-1.9666,-1.9665,-1.9665,0,0,-1.9569,-1.9584,-1.9592,-1.96,-1.9614,-1.963,-1.9654,-1.9673,-1.9685,-1.9698,-1.9719,-1.9746,-1.9737,-1.9748,-1.9746,-1.9763,-1.98,-1.975,-1.9751,-1.976,-1.9845,-1.9853,-1.9861,-1.9795,-1.9796,-1.9797,-1.9844,0,-1.9614,-1.9655,-1.9653,-1.9693,-1.9712,-1.9702,-1.9723,-1.9734,-1.9737,-1.9755,-1.9758,-1.9778,-1.9764,-1.977,-1.9787,-1.9792,-1.9817,-1.9789,-1.9815,-1.9816,-1.9813,-1.9869,-1.9878,-1.9921,-1.985,-1.9851,-1.9852,0,-1.9671,-1.9686,-1.9727,-1.9738,-1.9746,-1.9765,-1.9783,-1.9799,-1.9811,-1.9813,-1.9825,-1.982,-1.9845,-1.9824,-1.9859,-1.984,-1.985,-1.9854,-1.9856,-1.9859,-1.9837,-1.9874,-1.9935,-1.9942,-1.9861,-1.986,-1.986,0,-1.971,-1.974,-1.9769,-1.9776,-1.9789,-1.9803,-1.9809,-1.982,-1.9832,-1.9847,-1.9855,-1.9873,-1.9883,-1.9897,-1.9897,-1.9882,-1.9933,-1.9912,-1.9935,-1.9935,-1.9947,-1.9946,-2.0011,-1.9952,-1.9952,-1.9952,-1.9952,0,-1.9761,-1.9787,-1.9787,-1.9805,-1.9833,-1.983,-1.9859,-1.9864,-1.9874,-1.9892,-1.9884,-1.9902,-1.9901,-1.992,-1.992,-1.9949,-1.9953,-1.9956,-1.9956,-1.9957,-1.9957,-1.9965,-1.9962,-1.9954,-1.9953,-1.9953,-1.9953,0,-1.981,-1.9811,-1.9841,-1.9851,-1.9854,-1.9875,-1.9883,-1.99,-1.9903,-1.9927,-1.9932,-1.9936,-1.9957,-1.9959,-1.9983,-1.9983,-2.0019,-2.0015,-2.0015,-2.0014,-2.0037,-2.0035,-2.011,-2.012,-2.0054,-2.0055,-2.0055,0,-1.9843,-1.9862,-1.9874,-1.9885,-1.9892,-1.9911,-1.9923,-1.9921,-1.9933,-1.9948,-1.9964,-1.9984,-2.0,-2.0034,-2.004,-2.0059,-2.0056,-2.0081,-2.0059,-2.006,-2.0057,-2.0056,-2.0059,-2.0085,-2.0086,-2.0087,-2.0087,0,-1.9901,-1.99,-1.9917,-1.9934,-1.9948,-1.9961,-1.9973,-1.9984,-1.9983,-1.9997,-2.0019,-2.0031,-2.0056,-2.0076,-2.0094,-2.0101,-2.0095,-2.0094,-2.01,-2.0102,-2.0102,-2.0103,-2.0027,-2.0092,-2.0092,-2.0092,-2.0091,-2.0091,-1.9943,-1.996,-1.9971,-1.999,-1.9999,-2.001,-2.0027,-2.0031,-2.0048,-2.0068,-2.0066,-2.0089,-2.0101,-2.0125,-2.0133,-2.0152,-2.0144,-2.0153,-2.0155,-2.0158,-2.0161,-2.0098,-2.0155,-2.0155,-2.0155,-2.0155,-2.0155,0,-2.0002,-2.0008,-2.0025,-2.0043,-2.0058,-2.0049,-2.0062,-2.0075,-2.0096,-2.0107,-2.0123,-2.0147,-2.0167,-2.0174,-2.0193,-2.0207,-2.0204,-2.0212,-2.0212,-2.0213,-2.0167,-2.0159,-2.0214,-2.0214,-2.0214,-2.0214,-2.0214,-2.0214,-2.0034,-2.0062,-2.0063,-2.0096,-2.0102,-2.0124,-2.0133,-2.0144,-2.0153,-2.018,-2.0196,-2.02,-2.021,-2.0229,-2.0247,-2.0249,-2.0257,-2.0266,-2.0266,-2.0223,-2.0217,-2.0211,-2.0204,-2.0267,-2.0267,-2.0312,-2.0312,-2.0312]}]]